Regional Weather Roundup
Issued by NWS Albany, NY

Home | Current Version | Previous Version | Graphics & Text | Print | Product List | Glossary Off
Versions: 1 2 3 4 5 6 7 8 9 10 11 12 13 14 15 16 17 18 19 20 21 22 23 24 25 26 27 28 29 30 31 32 33 34 35 36 37 38 39 40 41 42 43 44 45 46 47 48 49 50

000
ASUS41 KALY 211610
RWRALY

NEW YORK STATE HOURLY WEATHER ROUNDUP
NATIONAL WEATHER SERVICE ALBANY NY
1200 PM EDT SUN SEP 21 2014

NOTE: "FAIR" INDICATES FEW OR NO CLOUDS BELOW 12,000 FEET WITH NO
SIGNIFICANT WEATHER AND/OR NO OBSTRUCTIONS TO VISIBILITY.

NYZ032-033-038>043-046>054-057>066-NYZ062>081-211700-
EAST


CITY           SKY/WX    TMP DP  RH WIND       PRES   REMARKS
ALBANY         PTSUNNY   74  61  63 S18       29.78F
GLENS FALLS    SUNNY     75  61  61 S12       29.77F
POUGHKEEPSIE   CLOUDY    72  64  76 CALM      29.82F
NEWBURGH       PTSUNNY   70  66  88 CALM      29.85F
MONTGOMERY     MOSUNNY   74  63  68 SE6       29.82F
WHITE PLAINS   FOG       70  68  93 W3        29.82F VSB 1
ISLIP          CLOUDY    76  68  76 SE9       29.81F
NEW YORK CITY  CLOUDY    72  67  84 NE5       29.80F
CENTRAL PARK   CLOUDY    72  67  84 CALM      29.84F HAZE
$$

NYZ005>009-017-018-044>046-055-056-211700-
CENTRAL


CITY           SKY/WX    TMP DP  RH WIND       PRES   REMARKS
FULTON         LGT RAIN  70  63  78 S9        29.65F
SYRACUSE       CLOUDY    73  63  70 S8        29.68S
ROME           CLOUDY    72  62  71 S8        29.72F
ELMIRA         LGT RAIN  77  63  61 SW10G24   29.70F
BINGHAMTON     MOSUNNY   71  61  70 S14G22    29.78F
MONTICELLO     MOSUNNY   72  59  64 MISG      29.85F
$$

NYZ026>034-041>043-211700-
NORTH


CITY           SKY/WX    TMP DP  RH WIND       PRES   REMARKS
WATERTOWN      LGT RAIN  68  61  78 S9G18     29.62F
FORT DRUM      NOT AVBL
MASSENA        LGT RAIN  70  65  84 CALM      29.63F
SARANAC LAKE   PTSUNNY   71  57  61 S17G25    29.70F
PLATTSBURGH    MOSUNNY   72  60  66 SE14      29.69F
$$

NYZ001>004-010>016-019>021-211700-
WEST


CITY           SKY/WX    TMP DP  RH WIND       PRES   REMARKS
NIAGARA FALLS  PTSUNNY   73  64  73 SW24G33   29.58S
BUFFALO        PTSUNNY   73  63  70 SW26G43   29.61R
DUNKIRK        MOSUNNY   74  63  68 W18G31    29.64S
JAMESTOWN      MOSUNNY   66  63  88 SW14      29.69F
WELLSVILLE     PTSUNNY   66  62  87 SW13G21   29.75F
ROCHESTER      PTSUNNY   74  65  73 SW17G30   29.61F
PENN YAN       CLOUDY    69  63  81 S8        29.68F
$$

             KEY
       WCI = WIND CHILL INDEX
       VSB = VISIBILITY
       HX  = HEAT INDEX
$$



USA.gov is the U.S. government's official web portal to all federal, state and local government web resources and services.